ONEWEB-0256, 48974

Orbit data source: Space-Track

ONEWEB-0256, 48974 is a payload satellite owned by One Web (NAA) (UK) in LEO that was launched on Thu, 01 Jul 2021 UTC via a SOYUZ-2-1B launch vehicle from the Vostochny Cosmodrome (VOSTO). Payload-class satellites include a variety of spacecraft equipped with specific instruments for various scientific and technological missions. These include communications satellites like Starlink; space stations such as the ISS; scientific satellites like the Hubble; Earth observation satellites from companies like Planet Labs, Umbra, and HawkEye 360; GPS; miniature CubeSats for education and research; and military/defense satellites.

Loading next visibility...
Identifier
48974, 2021-060H
Orbit
LEO
Country
Flag of UKUK
Related business
Manufacturer
One Web
Mission
Operational Commercial Communications
Bus & Motor
ARROW, Unknown motor
Mass
148 kg wet, ~140 kg dry
Launch date (UTC)
2021-07-01 (4 years ago)
Launch vehicle
SOYUZ-2-1B
Launch site
Vostochny Cosmodrome (VOSTO)
Object type
Payload
Rocket body
Debris
Shape & HBR
Trap Box + 2 Pan, 6.7 m
Radar Cross Section
3.464 m², Large (>1 m²)

Expand to show TLE details & history
Last TLE update: 10 hours ago

TLE from 10 hours ago
0 ONEWEB-0256
1 48974U 21060H   25349.76564775  .00000091  00000-0  20527-3 0  9990
2 48974  87.9036 265.3148 0001735  78.2956 281.8370 13.16595292215492
Epoch: 2025-12-15T18:22Z
TLE epoch observation values (Epoch: 2025-12-15T18:22:31.965Z)
Latitude
0.00002°
Longitude
-94.9779°
Altitude
1,200.38 km
Speed
7.254 km/s
True Right ascension
17h 41m 15s
True Declination
0° 00' 00"
Sunlit
Object was in daylight at epoch
Visualization orbit readout
Latitude
Unknown
Longitude
Unknown
Altitude
Unknown
Speed
Unknown
Apparent Right ascension
Unknown
Apparent Declination
Unknown
Sunlit
N/A
Visualization observer readout
Local Sidereal Time
03:06:10
Azimuth
Unknown
Elevation
Unknown
Doppler factor
Unknown
Orbital elements
Apogee altitude
1,196.177 km
Perigee altitude
1,193.549 km
Semi-major axis
7,573 km
Eccentricity
0.00017
Inclination
87.9036°
RAAN
265.3148°
Arg. of periapsis
78.2956°
True anomaly
281.81754°
Mean anomaly
281.837°
Eccentric anomaly
281.82727°
Mean motion
3.29338 °/min
Orbital period
109.31 mins
BSTAR
0.00020527
Loading maneuver chart data...
Computing Atmospheric mass density...
Loading historical data...
Loading historical data...
Loading historical data...
Loading historical data...
Loading historical data...
Loading historical data...
Loading historical data...

Documentation

Showing up to 5 results
|